Regional Weather Roundup
Issued by NWS

Home | Current Version | Previous Version | Graphics & Text | Print | Product List | Glossary On
Versions: 1 2 3 4 5 6 7 8 9 10 11 12 13 14 15 16 17 18 19 20 21 22 23 24 25 26 27 28 29 30 31 32 33 34 35 36 37 38 39 40 41 42 43 44 45 46 47 48 49 50
000
ASUS43 KMPX 280201
RWRMN
WEATHER ROUNDUP FOR MINNESOTA
NATIONAL WEATHER SERVICE TWIN CITIES/CHANHASSEN MN
900 PM CDT THU JUL 27 2017


NOTE: "FAIR" INDICATES FEW OR NO CLOUDS BELOW 12,000 FEET WITH NO
SIGNIFICANT WEATHER AND/OR OBSTRUCTIONS TO VISIBILITY. N/A MEANS
CURRENT SKY AND/OR WEATHER CONDITIONS ARE NOT AVAILABLE.

MNZ060>063-068>070-280300-
   Twin Cities Metro

CITY           SKY/WX    TMP DP  RH WIND       PRES   REMARKS
TWIN CITIES    PTCLDY    78  58  49 NE6       30.02S
ST PAUL        CLEAR     77  61  57 NE3       30.02S
CRYSTAL        CLEAR     76  56  49 N6        30.01S
BLAINE         PTCLDY    79  61  53 NE6       30.03S
LAKEVILLE      CLEAR     68  68 100 CALM      30.02F
EDEN PRAIRIE   CLEAR     78  58  49 N6        30.01S
SOUTH ST PAUL  CLEAR     78  57  47 CALM      30.01S
LAKE ELMO      FAIR      75  61  60 N5        30.04S
$$
MNZ001>005-007-008-013>017-022>024-027-028-280300-
   Northwest Minnesota

CITY           SKY/WX    TMP DP  RH WIND       PRES   REMARKS
BEMIDJI        CLEAR     69  56  65 CALM      30.07S
HALLOCK        CLEAR     73  64  73 CALM      30.04S
ROSEAU         PTCLDY    73  66  78 CALM      30.06S
WARROAD        CLEAR     70  66  88 CALM      30.07S
CROOKSTON      CLEAR     75  64  69 CALM      30.05F
FOSSTON        CLEAR     68  59  73 CALM      30.08S
DETROIT LAKES  CLEAR     73  63  68 CALM      30.08F
MOORHEAD       CLEAR     73  61  64 CALM      30.05F
PARK RAPIDS    CLEAR     75  59  57 NE6       30.07S
MAHNOMEN       FAIR      71  63  73 E3        30.07S
$$
MNZ006-009>011-018-025>026-280300-
   North Central Minnesota

CITY           SKY/WX    TMP DP  RH WIND       PRES   REMARKS
BAUDETTE       CLEAR     71  61  70 N3        30.06S
FLAG ISLAND    CLEAR     75  63  64 CALM      30.05S
INTL FALLS     CLEAR     67  58  72 CALM      30.05F
WASKISH        CLEAR     70  63  78 CALM      30.07R
BIG FORK       CLEAR     70  61  73 CALM      30.07R
LONGVILLE      CLEAR     64  63  94 CALM      30.07S
GRAND RAPIDS   CLEAR     66  63  90 CALM      30.08S
CRANE LAKE     CLEAR     63  61  94 CALM      30.07F
ORR            CLEAR     66  57  72 CALM      30.05S
COOK             N/A     66  61  82 CALM      30.07F
WALKER         FAIR      69  59  71 N5        30.07S
$$
MNZ012-019>021-037-280300-
   Northeast Minnesota

CITY           SKY/WX    TMP DP  RH WIND       PRES   REMARKS
DULUTH         TSTM      63  58  83 SE12      30.09F
ELY            CLEAR     64  57  77 CALM      30.08F
HIBBING        MOCLDY    68  54  60 SE14      30.08R
EVELETH        PTCLDY    67  46  46 SE3       30.10S
DULUTH HARBOR  TSTM      63  61  94 N7        30.07F
TWO HARBORS    PTCLDY    64  59  82 CALM      30.05F
SILVER BAY     CLOUDY    61  59  94 CALM      30.06S
GRAND MARAIS     N/A     61  55  81 CALM      30.07R
G MARAIS ARPRT CLOUDY    61  52  72 N5        30.12R
$$
MNZ029>031-032-039>041-046>048-054>057-064-280300-
   West Central Minnesota

CITY           SKY/WX    TMP DP  RH WIND       PRES   REMARKS
FERGUS FALLS   CLEAR     75  63  64 CALM      30.04F
WHEATON        CLEAR     72  63  73 CALM      30.06F
MORRIS         CLEAR     73  63  68 NE6       30.04F
ALEXANDRIA     CLEAR     72  63  73 N5        30.08S
ELBOW LAKE     FAIR      73  64  73 CALM      30.06S
WADENA         CLEAR     70  61  73 CALM      30.07S
GLENWOOD       CLEAR     73  61  64 CALM      30.07S
APPLETON       PTCLDY    77  63  61 NE3       30.04F
BENSON         CLEAR     72  63  73 CALM      30.06S
ORTONVILLE     CLEAR     75  63  64 CALM        N/A
MADISON        PTCLDY    75  66  73 N3        30.05S
WILLMAR        FAIR      75  63  64 N3        30.06S
$$
MNZ033>034-036-042>043-049>051-058-059-280300-
   Central Minnesota

CITY           SKY/WX    TMP DP  RH WIND       PRES   REMARKS
ST CLOUD       CLEAR     71  65  81 NE3       30.04S
SAUK CENTRE    FAIR      72  62  69 CALM      30.06S
PAYNESVILLE    CLEAR     74  59  59 N3        30.06S
AITKIN         CLEAR     64  63  94 CALM      30.05S
PINE RIVER     CLEAR     68  61  77 CALM      30.09S
BRAINERD       CLEAR     71  63  75 CALM      30.06S
STAPLES        CLEAR     70  63  78 CALM      30.06S
LONG PRAIRIE   FAIR      70  66  88 CALM      30.07S
LITTLE FALLS   PTCLDY    68  61  77 CALM      30.06S
LITCHFIELD     CLEAR     75  63  64 CALM      30.05S
BUFFALO        CLEAR     74  59  58 N3        30.04S
MAPLE LAKE     CLEAR     74  63  69 CALM      30.05S
HUTCHINSON     CLEAR     71  66  84 NW3       30.05S
$$
MNZ037-044-045-052-053-280300-
   East Central Minnesota

CITY           SKY/WX    TMP DP  RH WIND       PRES   REMARKS
PRINCETON      CLEAR     72  64  78 CALM      30.05R
MORA           CLEAR     70  63  78 CALM      30.06S
CAMBRIDGE      CLEAR     73  61  64 CALM      30.03R
RUSH CITY      PTCLDY    72  63  73 N3        30.05R
MOOSE LAKE     CLEAR     70  61  73 CALM      30.05R
HINCKLEY       MOCLDY    70  63  78 CALM      30.05F
CLOQUET        CLOUDY    66  54  63 E3        30.09S
MCGREGOR       CLEAR     70  64  83 CALM      30.07R
$$
MNZ071>073-080-081-089-090-097-098-280300-
   Southwest Minnesota

CITY           SKY/WX    TMP DP  RH WIND       PRES   REMARKS
MONTEVIDEO     CLEAR     73  61  64 CALM      30.05S
CANBY          PTCLDY    74  64  70 CALM      30.06F
MARSHALL       PTCLDY    76  63  64 NE5       30.05F
REDWOOD FALLS  PTCLDY    75  62  64 CALM      30.04S
OLIVIA         PTCLDY    77  61  57 CALM      30.04S
PIPESTONE      CLEAR     73  63  68 CALM      30.07F
WINDOM         CLEAR     68  63  83 N6        30.05S
WORTHINGTON    CLEAR     72  62  71 N5        30.07S
JACKSON        CLEAR     68  63  83 CALM      30.06S
TRACY          CLEAR     73  66  81 CALM      30.06S
SLAYTON        HVY RAIN  72  58  60 NE3       30.08S
$$
MNZ065>067-074>077-082>085-091>093-280300-
   South Central Minnesota

CITY           SKY/WX    TMP DP  RH WIND       PRES   REMARKS
MANKATO        CLEAR     75  64  68 N3        30.03F
NEW ULM        PTCLDY    75  61  60 CALM      30.04R
ST JAMES       CLEAR     72  64  78 CALM      30.04F
FAIRMONT       CLEAR     71  65  81 N5        30.04S
GLENCOE        CLEAR     73  69  86 CALM      30.03S
FARIBAULT      CLEAR     70  66  88 CALM      30.03F
OWATONNA       CLEAR     73  63  68 CALM      30.03S
WASECA         CLEAR     70  64  83 N3        30.04S
ALBERT LEA     CLEAR     72  64  78 CALM      30.03S
$$
MNZ078>079-086>088-094>096-280300-
   Southeast Minnesota

CITY           SKY/WX    TMP DP  RH WIND       PRES   REMARKS
ROCHESTER      CLEAR     71  61  70 N6        30.03S
RED WING       CLEAR     72  63  73 N3        30.00S
STANTON        CLEAR     71  67  88 CALM      30.01S
DODGE CENTER   CLEAR     70  63  78 CALM      30.03F
WINONA         CLEAR     73  64  73 CALM      30.00S
AUSTIN         CLEAR     72  63  73 CALM      30.02S
PRESTON        CLEAR     70  62  76 N3        30.03S
$$
ABBREVIATIONS USED IN REMARKS
   TC - TEMPERATURES IN CELSIUS
  WCI - WIND CHILL INDEX
   HX - HEAT INDEX
  VSB - VISIBILITY
$$



USA.gov is the U.S. government's official web portal to all federal, state and local government web resources and services.